This is the latest recevied weather packets stored in our database for station/object VU3DUE-WX. If no packets are shown the sender has not sent any weather packets the latest 10 day(s).
| Time | Temp. | Humidity | Pressure | Rain* | Wind** | Luminosity | Snow |
|---|---|---|---|---|---|---|---|
| 1788118437 | 25.56° C | 69% | 911.8 hPa | - | - | - | - |
| 1788117837 | 25.56° C | 68% | 911.9 hPa | - | - | - | - |
| 1788117237 | 25.56° C | 69% | 912.1 hPa | - | - | - | - |
| 1788116637 | 26.11° C | 68% | 912.2 hPa | - | - | - | - |
| 1788116037 | 26.11° C | 69% | 912.3 hPa | - | - | - | - |
| 1788115437 | 25.56° C | 68% | 912.3 hPa | - | - | - | - |
| 1788114836 | 26.11° C | 69% | 912.4 hPa | - | - | - | - |
| 1788114237 | 26.11° C | 69% | 912.5 hPa | - | - | - | - |
| 1788113637 | 25.56° C | 70% | 912.5 hPa | - | - | - | - |
| 1788113036 | 25.56° C | 70% | 912.6 hPa | - | - | - | - |
| 1788112436 | 25.56° C | 71% | 912.6 hPa | - | - | - | - |
| 1788111836 | 25.56° C | 68% | 912.8 hPa | - | - | - | - |
| 1788111266 | 25.56° C | 71% | 912.8 hPa | - | - | - | - |
| 1788111138 | 25.56° C | 71% | 912.8 hPa | - | - | - | - |
| 1788110537 | 26.11° C | 72% | 912.8 hPa | - | - | - | - |
| 1788109937 | 25.56° C | 71% | 912.8 hPa | - | - | - | - |
| 1788109337 | 25.56° C | 70% | 912.9 hPa | - | - | - | - |
| 1788108737 | 25.56° C | 71% | 913 hPa | - | - | - | - |
| 1788108137 | 25.56° C | 71% | 913 hPa | - | - | - | - |
| 1788107537 | 25.56° C | 72% | 913 hPa | - | - | - | - |
| 1788106937 | 25.56° C | 67% | 912.9 hPa | - | - | - | - |
| 1788106532 | 25.56° C | 73% | 912.8 hPa | - | - | - | - |
| 1788105932 | 25.56° C | 74% | 912.6 hPa | - | - | - | - |
| 1788105332 | 25.56° C | 75% | 912.5 hPa | - | - | - | - |
| 1788104732 | 25.56° C | 74% | 912.5 hPa | - | - | - | - |
* Rain since midnight (hover to see other rain measurements)
** Current wind speed in m/s (hover to see current wind gust speed)